Regional Weather Roundup
Issued by NWS

Home | Current Version | Previous Version | Graphics & Text | Print | Product List | Glossary On
Versions: 1 2 3 4 5 6 7 8 9 10 11 12 13 14 15 16 17 18 19 20 21 22 23 24 25 26 27 28 29 30 31 32 33 34 35 36 37 38 39 40 41 42 43 44 45 46 47 48 49 50
000
ASUS45 KTFX 181104
RWRMT
MONTANA HOURLY WEATHER ROUNDUP
NATIONAL WEATHER SERVICE GREAT FALLS MT
504 AM MDT FRI APR 18 2014

NOTE: "FAIR" INDICATES FEW OR NO CLOUDS BELOW 12000 FEET WITH NO
SIGNIFICANT WEATHER AND/OR OBSTRUCTIONS TO VISIBILITY.

* THESE STATIONS ARE NOT UNDER NWS QUALITY CONTROL. THEY DO NOT
   REPORT WEATHER SUCH AS PRECIPITATION OR FOG.

MTZ001>007-043-181200-
WEST OF THE DIVIDE
CITY           SKY/WX    TMP DP  RH WIND       PRES   REMARKS
KALISPELL      CLOUDY    45  41  86 S5        29.70S
MISSOULA       CLOUDY    45  39  80 S3        29.78F
BUTTE          CLOUDY    39  36  89 CALM      29.77F
MULLAN PASS    SNOW      30  28  92 SW9G25    29.73R VSB M1/4 WCI  22
* ESSEX        N/A       35  34  96 N/A        N/A
* LINCOLN      N/A       40  39  96 SW2        N/A
* LOOKOUT PASS N/A       36  33  89 SE4G18     N/A
* POLSON       N/A       41  40  96 SW2        N/A
* SEELEY LAKE  N/A       38  37  96 SE1        N/A
* THOMP F APT  MOCLDY    43  26  51 NE3G10     N/A
* YAAK HILL    N/A       42  40  93 NW1        N/A
$$

MTZ008-052>055-181200-
SOUTHWEST MONTANA
CITY           SKY/WX    TMP DP  RH WIND       PRES   REMARKS
BOZEMAN        CLOUDY    48  32  54 CALM      29.68R
DILLON         CLOUDY    48  36  63 W12       29.71S
W YELLOWSTONE  N/A       39  33  79 SW3G8      N/A
* THREE FORKS  CLOUDY    57  36  46 NW14G21    N/A
* BOULDER HILL N/A       40  33  76 SW3        N/A
* MONIDA PASS  N/A       39  30  70 SE12G17    N/A   WCI  32
* RAYNOLDS PAS N/A       42  27  55 S17G24     N/A
* WHITEHALL    N/A       46  38  74 NW16G27    N/A
* WISE RIVER   N/A       39  36  89 SW7G12     N/A   WCI  34
$$

MTZ009>010-012-014-046-048-049-054-181200-
EAST SLOPES AND CENTRAL MONTANA
CITY           SKY/WX    TMP DP  RH WIND       PRES   REMARKS
CUT BANK       MOCLDY    45  34  65 W3        29.62F
GREAT FALLS    CLOUDY    45  41  86 S10       29.64F
HELENA         CLOUDY    46  39  77 VRB5      29.72S
MALMSTROM AFB  CLOUDY    46  41  83 S13       29.62F
* CONRAD       CLOUDY    43  37  79 N/A        N/A
* DEARBORN     N/A       50  38  64 S4G12      N/A
* EAST GLACIER N/A       38  33  82 W27G35     N/A   WCI  26
* MONARCH      N/A       40  35  82 W8         N/A   WCI  35
* PENDROY      N/A       41  35  79 W1         N/A
* ROGERS PASS  N/A       38  34  86 SE13G21    N/A   WCI  30
* SAINT MARY   N/A       39  33  79 S9G21      N/A   WCI  33
* SWEET GRASS  N/A       43  38  83 SW16G21    N/A
$$

MTZ011-013-016-021-035-040-045-047-050-051-181200-
NORTH CENTRAL MONTANA
CITY           SKY/WX    TMP DP  RH WIND       PRES   REMARKS
HAVRE          LGT RAIN  46  43  89 W3        29.64R
LEWISTOWN      CLOUDY    43  34  71 S3        29.67R
* CHESTER      N/A       45  42  89 S4         N/A
* DENTON       N/A       46  34  63 S6         N/A
* GEYSER       N/A       43  40  89 W9         N/A
* JUDITH GAP   N/A       40  30  68 SW7        N/A   WCI  35
* LOMA         N/A       45  43  93 NE3        N/A
$$

MTZ017>020-022>027-061-062-181200-
NORTHEAST MONTANA
CITY           SKY/WX    TMP DP  RH WIND       PRES   REMARKS
GLASGOW        MOCLDY    41  34  76 E21       29.71F
GLENDIVE       MOCLDY    37  30  76 E12       29.81F WCI  29
JORDAN         PTCLDY    43  36  76 E8        29.69F
SIDNEY         CLOUDY    37  25  62 SE8       29.89R WCI  31
WOLF POINT     MOCLDY    43  30  60 E10       29.80S
* BEAVER HILL  N/A       34  26  73 E28G34     N/A   WCI  21
* CIRCLE       N/A       43  34  71 N/A        N/A
* LINDSAY DVD  N/A       36  31  82 E14        N/A   WCI  27
* NAVAJO       N/A       35  32  89 SE13       N/A   WCI  26
* SACO         N/A       43  34  71 E19G24     N/A
$$

MTZ028>042-056>058-181200-
SOUTHCENTRAL AND SOUTHEAST MONTANA
CITY           SKY/WX    TMP DP  RH WIND       PRES   REMARKS
BAKER          MOCLDY    32  27  82 SE14      29.82F WCI  22
BILLINGS       MOCLDY    43  30  60 N3        29.65F
LIVINGSTON     CLOUDY    55  28  35 SW26G35   29.65F
MILES CITY     MOCLDY    45  34  65 SE9       29.73S
* LAUREL APT   PTCLDY    46  27  48 N/A        N/A
* ROUNDUP APT  CLOUDY    43  28  56 N/A        N/A
* HYSHAM       N/A       53  25  34 S9G16      N/A
* REED POINT   N/A       40  33  76 W6         N/A   WCI  36
* ROSCOE HILL  N/A       56  13  18 S12G24     N/A
$$

REGIONAL REPORTS...DAKOTAS
CITY           SKY/WX    TMP DP  RH WIND       PRES   REMARKS
WILLISTON      CLOUDY    37  25  62 SE10G18   29.91S WCI  30
DICKINSON      MOCLDY    30  21  69 SE17      29.88F WCI  18
CROSBY         CLOUDY    36  27  70 E17G22    29.93F WCI  26
TIOGA          CLOUDY    32  23  69 SE17G28   29.97F WCI  21
WATFORD CITY   CLOUDY    34  23  64 SE14G25   29.89F WCI  24
BISMARCK       CLOUDY    36  21  54 E14G23    30.06F WCI  27
GRAND FORKS    CLOUDY    32  18  56 SE8       30.28S WCI  25
FARGO          CLOUDY    36  21  54 SE7       30.27F WCI  30
BUFFALO SD     PTCLDY    28  25  89 NE5       29.79F WCI  22
RAPID CITY     PTCLDY    32  30  92 CALM      29.83F
$$

REGIONAL REPORTS...WYOMING/IDAHO/WASHINGTON
CITY           SKY/WX    TMP DP  RH WIND       PRES   REMARKS
GILLETTE       MOCLDY    39  34  82 VRB3      29.77F
SHERIDAN       CLOUDY    34  30  85 CALM      29.73F
CODY           CLOUDY    48  27  44 W5        29.79S
YELLOWSTONE LA CLOUDY    34  32  92 CALM      29.92F
SALMON         CLOUDY    45  39  80 CALM      29.79R
MULLAN PASS    SNOW      30  28  92 SW9G25    29.73S VSB M1/4 WCI  22
SPOKANE        PTCLDY    41  34  76 SW21      29.75R

$$




USA.gov is the U.S. government's official web portal to all federal, state and local government web resources and services.